Regional Weather Roundup
Issued by NWS

Home | Current Version | Previous Version | Graphics & Text | Print | Product List | Glossary On
Versions: 1 2 3 4 5 6 7 8 9 10 11 12 13 14 15 16 17 18 19 20 21 22 23 24 25 26 27 28 29 30 31 32 33 34 35 36 37 38 39 40 41 42 43 44 45 46 47 48 49 50
000
ASUS43 KMKX 220911
RWRWI

WISCONSIN REGIONAL WEATHER ROUNDUP
NATIONAL WEATHER SERVICE MILWAUKEE/SULLIVAN WI
400 AM CDT SAT JUL 22 2017

NOTE: "FAIR" INDICATES FEW OR NO CLOUDS BELOW 12,000 FEET WITH NO
SIGNIFICANT WEATHER AND/OR OBSTRUCTIONS TO VISIBILITY.

WIZ001-002-006>008-014>016-023>028-221000-
NORTHWEST WISCONSIN

CITY           SKY/WX    TMP DP  RH WIND       PRES   REMARKS
SUPERIOR ARPT  NOT AVBL
ASHLAND        CLOUDY    63  62  97 CALM      29.82S
HAYWARD        CLOUDY    65  63  93 N5        29.82S
SIREN          CLOUDY    63  62  96 CALM      29.80S
CUMBERLAND     CLOUDY    63  61  94 CALM      29.80F
RICE LAKE      CLOUDY    63  62  97 NE3       29.81F
CHETEK         CLOUDY    64  64  99 CALM      29.80S
LADYSMITH      CLOUDY    66  65  96 CALM      29.82R
EAU CLAIRE     CLOUDY    66  65  96 SW3       29.77S
MENOMONIE      PTCLDY    65  64  96 CALM      29.77F
NEW RICHMOND   PTCLDY    65  64  96 CALM      29.78F
OSCEOLA        CLOUDY    66  66 100 CALM      29.80F
$$

WIZ003>005-009-010-017-018-221000-
NORTH CENTRAL WISCONSIN

CITY           SKY/WX    TMP DP  RH WIND       PRES   REMARKS
MANITOWISH WTR CLOUDY    65  65 100 CALM      29.83R
ARBOR VITAE    CLOUDY    67  65  94 CALM      29.82R
WOODRUFF       CLOUDY    67  65  94 CALM      29.82R
RHINELANDER    PTCLDY    64  61  90 SE3       29.82F
EAGLE RIVER    PTCLDY    65  60  84 CALM      29.82S
LAND O LAKES   CLOUDY    63  62  96 CALM      29.85R
PHILLIPS       CLOUDY    64  64 100 CALM      29.80S
TOMAHAWK         N/A     64  62  94 CALM      29.82R
MEDFORD        CLOUDY    65  65  98 SE3       29.81S FOG
MERRILL        CLOUDY    64  63  94 SE5       29.80F
$$

WIZ029-030-035-036-043>047-221000-
CENTRAL WISCONSIN

CITY           SKY/WX    TMP DP  RH WIND       PRES   REMARKS
WAUSAU         CLOUDY    65  64  97 SE6       29.79F
MOSINEE        CLOUDY    64  64 100 E6        29.82F FOG
MARSHFIELD     CLOUDY    67  66  97 SE6       29.78F FOG
STEVENS POINT  CLOUDY    65  65 100 SE6       29.81F
WAUPACA        CLOUDY    68  65  90 CALM      29.82R
WAUTOMA        CLOUDY    66  64  93 CALM      29.80F
WISC RAPIDS    CLOUDY    68  67  96 S7        29.80F
CAMP DOUGLAS   CLOUDY    68  68 100 SE8       29.78F FOG
$$

WIZ011>013-019>022-031-037>040-048>050-221000-
NORTHEAST WISCONSIN

CITY           SKY/WX    TMP DP  RH WIND       PRES   REMARKS
ANTIGO         MOCLDY    62  60  94 CALM      29.84S
SHAWANO        CLOUDY    69  62  81 S3        29.84R
OCONTO         CLOUDY    68  61  76 CALM      29.82S
STURGEON BAY     N/A     67  64  90 S5        29.82R
GREEN BAY      CLOUDY    68  62  81 SE5       29.80F
MANITOWOC      CLOUDY    68  63  84 E7        29.81F
APPLETON       CLOUDY    66  55  68 SE6       29.80F
CLINTONVILLE   CLOUDY    68  61  77 CALM      29.83R
OSHKOSH        CLOUDY    66  61  84 SE5       29.78F
$$

WIZ032>034-041-042-053>061-221000-
SOUTHWEST WISCONSIN

CITY           SKY/WX    TMP DP  RH WIND       PRES   REMARKS
LA CROSSE      CLOUDY    73  70  90 S10       29.75F
SPARTA         CLOUDY    66  66  98 CALM      29.78F
VIROQUA        CLOUDY    68  68 100 SE7       29.78F VSB 3/4
BOSCOBEL       CLOUDY    71  69  93 CALM      29.78F FOG
PRAIRIE DU CHI CLOUDY    71  70  96 CALM      29.77F
PLATTEVILLE    CLOUDY    70  70 100 S7        29.83F
$$

WIZ056-057-062-063-064-067-068-221000-
SOUTH CENTRAL WISCONSIN

CITY           SKY/WX    TMP DP  RH WIND       PRES   REMARKS
REEDSBURG      FOG       65  65 100 CALM      29.79F VSB 1
BARABOO/DELLS  CLOUDY    65  64  94 CALM      29.79F FOG
LONE ROCK      CLOUDY    69  67  93 SE3       29.78F FOG
MINERAL POINT  CLOUDY    72  72 100 SE5       29.81F FOG
MADISON        CLOUDY    67  65  93 CALM      29.80S
MIDDLETON      CLOUDY    67  67 100 CALM      29.81F
WATERTOWN      CLOUDY    65  65 100 E3        29.79S
MONROE         CLOUDY    68  66  94 SW9       29.84F
JANESVILLE     RAIN      70  70 100 W7        29.79R
$$

WIZ051-052-058>065-066-070>072-221000-
SOUTHEAST WISCONSIN

CITY           SKY/WX    TMP DP  RH WIND       PRES   REMARKS
MILWAUKEE      CLOUDY    69  68  96 N5        29.78F
WAUKESHA       CLOUDY    63  61  94 N5        29.82R
MILWAUKEE/TIMM CLOUDY    64  61  88 N5        29.81R
RACINE         CLOUDY    71  71 100 SW6       29.80F FOG
KENOSHA        LGT RAIN  72  71  97 SW10      29.78F
FOND DU LAC    CLOUDY    65  60  84 S5        29.79F
SHEBOYGAN      CLOUDY    65  64  97 E5        29.80F
WEST BEND      CLOUDY    63  63 100 CALM      29.79F
JUNEAU         CLOUDY    64  62  93 E3        29.79F
$$

LSZ147-162-221000-
LAKE SUPERIOR

STATION/POSITION TIME  TEMP    WIND        PRES    WAVE
                       AIR SEA DIR/SP/G            HT/PER
                 (UTC) (F)     (DEG/KT/KT) (MB)    (FT/S)
W MID LAKE BUOY  0850   51 48   30/ 10/ 12 1009.1R   1/ 3
DEVILS ISLAND    0900   59     110/  2/  3 1009.2R
SAXON HARBOR     0840   64     190/  3/  4 1009.1R
$$

LMZ867-665-643>646-221000-
LAKE MICHIGAN

STATION/POSITION TIME  TEMP    WIND        PRES    WAVE
                       AIR SEA DIR/SP/G            HT/PER
                 (UTC) (F)     (DEG/KT/KT) (MB)    (FT/S)
CHAMBERS ISLAND  0840   70     190/  4/ 11 1009.5R
S GREEN BAY BUOY 0900   70 73  200/  8/ 10 1009.5
N MID LAKE BUOY  0850   68 66  230/  4/  6 1011.4R   1/ 3
NORTHPORT PIER   0840   69      CALM  /  4 1010.5R
KEWAUNEE LAKESHO 0848   68     190/  5/  7 1009.3F
SHEBOYGAN LAKESH 0900   67      80/  8/  9 1008.4F
PORT WASHINGTON  0830   68      20/  5/  8 1010.2F
ATWATER BUOY     0839   69 68   10/  8/ 10 1009.1F
MILWAUKEE LAKESH 0850   68     340/  7/  7   N/A
S MID LAKE BUOY  0750   72 70  150/ 12/ 16 1009.3F   2/ 4
KENOSHA   LAKESH 0900   72     300/  6/  8 1009.5
$$

TC  - TEMPERATURE IN CELSIUS
VSB - VISIBILITY IN STATUTE MILES
WCI - WIND CHILL INDEX
HX  - HEAT INDEX




USA.gov is the U.S. government's official web portal to all federal, state and local government web resources and services.